TELSTAR 18V (APSTAR 5C) (43611 NORAD) Tracking and Keplerian Element Data

This shows tracking and keplerian element data for the satellite.

Feedback or suggestion? Click here.




ElementValue
Catalog43611
NameTELSTAR 18V (APSTAR 5C)
Epoch Orbit240
Epoch Day111.9713262
Epoch Year2019
RAAN286.5613
Inclination0.0089
Eccentricity0.0002833
Argument of Perigee76.8951
Mean Anonmoly333.9514
Mean Motion1.00271629
Decay Rate-3.11E-06
L11 43611U 18069A 19111.97132620 -.00000311 00000-0 00000+0 0 9997
L22 43611 0.0089 286.5613 0002833 76.8951 333.9514 1.00271629 2409

Live tracking and technical data element details for TELSTAR 18V (APSTAR 5C) (NORAD 43611). TELSTAR 18V (APSTAR 5C) can be tracked NOW for your location showing map with azimuth and elevation plus other details from your city location.

Track the satellite on the map from your city or location and see movement details for azimuth, elevation, latitude, longitude, range, height, and movement on the map or in text.







IsCatalogInMostPopularTable: catalog: 43611, numindb: 172
Update: records affected: 1



GetName: 43611 TELSTAR 18V (APSTAR 5C)

Hit Count: updated at: Tue, 23 Apr 2019 20:33:22 GMT